Weather History for Mount Airy, NC

Change the Weather History Date:

Thursday, May 9, 2013

  Actual Average (KINT) Record (KINT)
Temperature  
Mean Temperature 65 °F -  
Max Temperature 82 °F 74 °F 88 °F (2003)
Min Temperature 48 °F 53 °F 33 °F (1980)
Growing Degree Days 15 (Base 50)    
Moisture  
Dew Point 55 °F    
Average Humidity 64    
Maximum Humidity 90    
Minimum Humidity 38    
Precipitation  
Precipitation 0.00 in - - ()
Sea Level Pressure  
Sea Level Pressure 30.05 in    
Wind  
Wind Speed 1 mph (WSW)    
Max Wind Speed 9 mph    
Max Gust Speed -    
Visibility 9 miles    
Events Fog    
Averages and records for this station are not official NWS values.
T = Trace of Precipitation, MM = Missing Value Source: NWS Daily Summary

Daily Weather History Graph

Daily Weather History Graph

Search for Another Location

Airport:

Trip Planner

Search our weather history database for the weather conditions in past years. The results will help you decide how hot, cold, wet, or windy it might be!

Date:

Astronomy

May. 09, 2013 Rise Set
Actual Time 6:20 AM EDT 8:17 PM EDT
Civil Twilight 5:52 AM EDT 8:45 PM EDT
Nautical Twilight 5:17 AM EDT 9:20 PM EDT
Astronomical Twilight 4:41 AM EDT 9:57 PM EDT
Moon 6:03 AM EDT (5/9) 8:11 PM EDT (5/9)
Length of Visible Light 14h 53m
Length of Day
13h 56m
Waning Crescent, 0% of the Moon is Illuminated
May 9
Waning Crescent
May 9
New
May 18
First Quarter
May 25
Full
May 31
Last Quarter

Hourly Weather History & Observations

Time (EDT) Temp. Heat Index Dew Point Humidity Pressure Visibility Wind Dir Wind Speed Gust Speed Precip Events Conditions
1:15 AM 50.9 °F - 48.2 °F 90% 30.02 in 0.8 mi Calm Calm - N/A   Mist
2:15 AM 49.8 °F - 46.9 °F 90% 30.01 in 1.5 mi Calm Calm - N/A   Mist
3:15 AM 49.1 °F - 46.4 °F 90% 30.01 in 0.2 mi Calm Calm - N/A Fog Fog
5:15 AM 48.7 °F - 46.0 °F 90% 30.01 in 5.0 mi Calm Calm - N/A   Clear
5:35 AM 49.6 °F - 46.9 °F 90% 30.01 in 0.5 mi Calm Calm - N/A Fog Fog
5:55 AM 48.6 °F - 45.9 °F 90% 30.02 in 5.0 mi Calm Calm - N/A   Clear
6:15 AM 48.2 °F - 45.5 °F 90% 30.03 in 1.8 mi Calm Calm - N/A   Mist
7:55 AM 56.1 °F - 53.1 °F 89% 30.06 in 5.0 mi Calm Calm - N/A   Clear
8:35 AM 58.5 °F - 55.4 °F 90% 30.07 in 10.0 mi Calm Calm - N/A   Clear
10:55 AM 70.7 °F - 65.5 °F 83% 30.08 in 10.0 mi West 3.5 mph - N/A   Clear
11:15 AM 72.1 °F - 63.9 °F 75% 30.08 in 10.0 mi South 3.5 mph - N/A   Clear
11:35 AM 73.9 °F - 66.6 °F 78% 30.08 in 10.0 mi Calm Calm - N/A   Clear
11:55 AM 73.9 °F - 62.6 °F 68% 30.08 in 10.0 mi Calm Calm - N/A   Clear
12:15 PM 76.1 °F - 66.6 °F 72% 30.08 in 10.0 mi Calm Calm - N/A   Clear
12:35 PM 77.2 °F - 65.7 °F 67% 30.07 in 10.0 mi NW 3.5 mph - N/A   Clear
12:55 PM 78.4 °F - 71.2 °F 78% 30.07 in 10.0 mi West 3.5 mph - N/A   Clear
1:15 PM 76.3 °F - 63.3 °F 64% 30.07 in 10.0 mi SSW 9.2 mph - N/A   Mostly Cloudy
1:35 PM 76.1 °F - 60.6 °F 59% 30.07 in 10.0 mi WSW 3.5 mph - N/A   Scattered Clouds
1:55 PM 77.5 °F - 60.4 °F 55% 30.07 in 10.0 mi SSW 6.9 mph - N/A   Scattered Clouds
2:15 PM 79.0 °F - 59.4 °F 51% 30.07 in 10.0 mi SSW 8.1 mph - N/A   Scattered Clouds
2:35 PM 79.0 °F - 58.5 °F 49% 30.06 in 10.0 mi South 3.5 mph - N/A   Scattered Clouds
2:55 PM 80.8 °F 80.9 °F 57.2 °F 44% 30.05 in 10.0 mi West 5.8 mph - N/A   Clear
3:15 PM 82.0 °F 82.0 °F 58.3 °F 44% 30.05 in 10.0 mi West 4.6 mph - N/A   Scattered Clouds
3:35 PM 82.8 °F 82.4 °F 57.4 °F 42% 30.04 in 10.0 mi West 5.8 mph - N/A   Mostly Cloudy
4:15 PM 81.5 °F 80.9 °F 54.3 °F 39% 30.03 in 10.0 mi Calm Calm - N/A   Mostly Cloudy
4:35 PM 79.9 °F - 52.2 °F 38% 30.02 in 10.0 mi NW 3.5 mph - N/A   Overcast
4:55 PM 77.4 °F - 54.5 °F 45% 30.03 in 10.0 mi Calm Calm - N/A   Overcast
5:15 PM 79.7 °F - 56.3 °F 44% 30.02 in 10.0 mi Calm Calm - N/A   Mostly Cloudy
5:35 PM 78.4 °F - 55.0 °F 44% 30.02 in 10.0 mi Calm Calm - N/A   Scattered Clouds
5:55 PM 77.9 °F - 56.8 °F 48% 30.02 in 10.0 mi Calm Calm - N/A   Mostly Cloudy
6:15 PM 79.0 °F - 56.1 °F 45% 30.02 in 10.0 mi Calm Calm - N/A   Scattered Clouds
6:35 PM 79.3 °F - 54.0 °F 41% 30.02 in 10.0 mi Calm Calm - N/A   Mostly Cloudy
6:55 PM 79.0 °F - 56.7 °F 46% 30.02 in 10.0 mi Calm Calm - N/A   Mostly Cloudy
7:15 PM 77.4 °F - 54.1 °F 44% 30.03 in 10.0 mi SSW 3.5 mph - N/A   Scattered Clouds
7:35 PM 74.5 °F - 52.9 °F 47% 30.03 in 10.0 mi Calm Calm - N/A   Mostly Cloudy
7:55 PM 72.3 °F - 51.4 °F 48% 30.04 in 10.0 mi Calm Calm - N/A   Scattered Clouds
8:35 PM 67.1 °F - 50.0 °F 54% 30.05 in 10.0 mi Calm Calm - N/A   Clear
8:55 PM 64.9 °F - 49.1 °F 56% 30.05 in 10.0 mi Calm Calm - N/A   Clear
9:35 PM 62.4 °F - 52.0 °F 69% 30.07 in 10.0 mi Calm Calm - N/A   Clear
9:55 PM 61.2 °F - 50.4 °F 68% 30.08 in 10.0 mi SSW 3.5 mph - N/A   Clear
10:15 PM 61.2 °F - 50.9 °F 69% 30.08 in 10.0 mi Calm Calm - N/A   Clear
10:35 PM 60.3 °F - 51.1 °F 72% 30.08 in 10.0 mi Calm Calm - N/A   Clear
10:55 PM 59.0 °F - 50.9 °F 74% 30.08 in 10.0 mi Calm Calm - N/A   Clear
11:15 PM 59.0 °F - 51.4 °F 76% 30.08 in 10.0 mi Calm Calm - N/A   Clear
11:35 PM 58.3 °F - 51.6 °F 78% 30.08 in 10.0 mi Calm Calm - N/A   Clear
11:55 PM 57.6 °F - 50.4 °F 77% 30.08 in 10.0 mi Calm Calm - N/A   Clear